Location: Arbon
(43.0005°N, 0.7472°E)
Time: 22:31:26
(UTC+00:00)

Explorer 7 - Pass Details

Date: 29 November 2020
Orbit: 484 x 678 km, 50.3° (Epoch: 25 January)

Event Time Altitude Azimuth Distance (km) Brightness Sun altitude
Rises 04:34:30 0° 286° (WNW) 2,845 - -27.2°
Reaches altitude 10° 04:37:05 10° 297° (WNW) 1,905 - -26.8°
Maximum altitude 04:40:54 29° 359° (N) 1,031 - -26.1°
Exits shadow 04:41:54 26° 25° (NNE) 1,101 8.5 -25.9°
Drops below altitude 10° 04:44:32 10° 62° (ENE) 1,798 10.1 -25.4°
Sets 04:46:54 0° 73° (ENE) 2,656 11.4 -25.0°
